Snowfall_Accumulation
0.1 0.0 0.0 0.0 0.0 0.0 0.0 0.0 0.0 nan nan nan nan nan nan nan nan nan nan nan nan nan nan nan nan nan nan
0.0 0.0 0.0 0.0 0.0 0.0 0.0 0.0 0.0 nan nan nan nan nan nan nan nan nan nan nan nan nan nan nan nan nan nan
0.0 0.0 0.0 0.0 0.0 0.0 0.0 0.0 0.0 nan nan nan nan nan nan nan nan nan nan nan nan nan nan nan nan nan nan
0.0 0.2 0.0 0.0 0.0 0.0 0.0 0.0 0.0 0.0 nan nan nan nan nan nan nan nan nan nan nan nan nan nan nan nan nan
0.3 0.1 0.3 0.0 0.0 0.0 0.0 0.0 0.0 0.0 0.0 0.0 0.0 0.0 0.0 nan nan nan nan nan nan nan nan nan nan nan nan
0.7 0.0 0.0 0.0 0.0 0.0 0.2 0.3 0.6 0.0 0.0 0.0 0.0 0.0 0.0 0.0 nan nan nan nan nan nan nan nan nan nan nan
0.0 0.0 0.0 0.0 0.1 0.2 0.1 0.5 0.5 0.0 0.0 0.0 0.0 0.0 0.0 0.0 nan nan nan nan nan nan nan nan nan nan nan
0.0 0.0 0.0 0.0 0.0 0.1 0.1 0.1 0.0 0.0 0.0 1.4 0.0 0.0 0.0 0.0 nan nan nan nan nan nan nan nan nan nan nan
nan nan nan nan nan 0.4 0.7 1.4 0.5 0.1 0.0 0.1 0.1 0.2 0.2 0.0 0.0 nan nan nan nan nan nan nan nan nan 0.0
0.0 0.0 nan nan nan 0.0 1.2 5.6 2.5 1.7 0.2 3.9 0.8 1.0 3.4 0.3 0.2 0.0 0.0 nan nan nan nan nan nan 0.0 0.0
0.0 0.0 0.0 0.0 0.0 0.1 0.1 4.0 7.3 4.7 0.3 3.5 6.4 2.0 3.0 2.0 0.4 0.3 0.2 0.0 0.0 0.0 nan nan nan 0.0 0.2
0.2 0.3 0.6 0.7 0.6 0.4 0.0 0.3 0.7 3.8 0.6 2.1 18.2 6.6 8.9 4.6 2.1 0.8 0.5 0.3 0.4 0.1 0.1 nan nan nan nan
0.7 1.1 1.1 1.1 1.7 1.9 1.0 0.9 3.0 1.3 1.9 4.1 11.1 6.6 7.9 8.3 5.7 2.3 2.8 0.9 0.6 1.2 0.7 0.4 0.3 0.2 0.5
1.3 0.8 1.2 3.3 3.5 3.3 6.8 6.0 7.9 4.7 1.5 3.0 4.8 6.6 9.4 3.6 6.3 4.2 1.5 8.4 1.7 1.5 1.4 0.6 0.3 0.1 0.0
1.7 1.8 2.0 3.3 4.4 4.6 7.2 7.2 9.4 6.7 5.3 2.5 0.6 1.2 2.3 4.7 7.7 2.9 3.8 3.0 1.7 3.7 2.8 1.7 0.8 0.3 0.1
2.1 2.5 4.5 5.8 7.2 8.3 8.6 8.4 9.3 5.6 6.1 4.7 4.9 6.3 3.9 1.9 4.7 6.1 2.7 3.0 2.4 2.2 1.7 3.3 1.5 0.4 0.0
4.3 4.9 6.0 6.9 8.0 8.3 8.0 6.3 5.7 5.1 5.4 6.5 10.1 12.1 12.8 8.9 1.3 nan 7.6 3.4 2.0 1.9 0.9 1.2 2.3 0.7 0.0
Water_Equivalent
0.05 0.00 0.00 0.00 0.00 0.00 0.00 0.00 0.00 nan nan nan nan nan nan nan nan nan nan nan nan nan nan nan nan nan nan
0.00 0.00 0.00 0.00 0.00 0.00 0.00 0.00 0.00 nan nan nan nan nan nan nan nan nan nan nan nan nan nan nan nan nan nan
0.00 0.00 0.00 0.00 0.00 0.00 0.00 0.00 0.00 nan nan nan nan nan nan nan nan nan nan nan nan nan nan nan nan nan nan
0.01 0.06 0.00 0.00 0.00 0.00 0.00 0.00 0.00 0.00 nan nan nan nan nan nan nan nan nan nan nan nan nan nan nan nan nan
0.08 0.02 0.09 0.00 0.00 0.00 0.00 0.00 0.00 0.00 0.00 0.00 0.00 0.00 0.00 nan nan nan nan nan nan nan nan nan nan nan nan
0.22 0.01 0.00 0.00 0.00 0.00 0.06 0.08 0.14 0.00 0.00 0.00 0.00 0.00 0.00 0.00 nan nan nan nan nan nan nan nan nan nan nan
0.00 0.00 0.00 0.00 0.02 0.04 0.03 0.12 0.11 0.00 0.00 0.00 0.00 0.00 0.00 0.00 nan nan nan nan nan nan nan nan nan nan nan
0.00 0.00 0.00 0.00 0.01 0.03 0.04 0.02 0.00 0.00 0.00 0.31 0.00 0.00 0.00 0.00 nan nan nan nan nan nan nan nan nan nan nan
nan nan nan nan nan 0.11 0.21 0.34 0.13 0.03 0.01 0.04 0.05 0.07 0.06 0.00 0.00 nan nan nan nan nan nan nan nan nan 0.00
0.00 0.00 nan nan nan 0.00 0.32 1.19 0.57 0.36 0.08 0.74 0.20 0.23 0.64 0.09 0.07 0.01 0.00 nan nan nan nan nan nan 0.00 0.00
0.00 0.00 0.00 0.01 0.00 0.02 0.03 0.83 1.38 0.91 0.10 0.78 1.20 0.43 0.67 0.44 0.12 0.11 0.06 0.01 0.00 0.00 nan nan nan 0.00 0.06
0.07 0.13 0.21 0.24 0.23 0.15 0.01 0.09 0.19 0.68 0.13 0.49 3.22 1.20 1.53 0.74 0.39 0.22 0.16 0.10 0.11 0.04 0.03 nan nan nan nan
0.20 0.35 0.35 0.36 0.43 0.44 0.23 0.24 0.71 0.34 0.45 0.93 1.93 1.13 1.31 1.29 0.84 0.41 0.55 0.26 0.17 0.31 0.19 0.13 0.10 0.07 0.14
0.27 0.20 0.30 0.70 0.71 0.71 1.19 1.13 1.33 0.88 0.37 0.70 0.91 1.06 1.43 0.60 0.98 0.65 0.31 1.34 0.48 0.46 0.45 0.18 0.10 0.03 0.01
0.33 0.37 0.43 0.68 0.77 0.85 1.27 1.27 1.42 1.02 0.82 0.55 0.13 0.27 0.45 0.76 1.07 0.56 0.76 0.63 0.52 1.08 0.75 0.45 0.26 0.11 0.02
0.48 0.54 0.85 1.02 1.22 1.42 1.45 1.28 1.33 0.83 0.88 0.77 0.80 0.90 0.79 0.43 0.90 1.06 0.55 0.64 0.69 0.70 0.53 0.62 0.39 0.13 0.01
0.89 0.98 1.11 1.22 1.34 1.31 1.20 0.94 0.80 0.76 0.78 0.98 1.42 1.56 1.49 0.99 0.29 nan 1.28 0.73 0.54 0.48 0.28 0.35 0.56 0.25 0.02
SL_Ratio
2.5 nan nan nan nan nan nan nan nan nan nan nan nan nan nan nan nan nan nan nan nan nan nan nan nan nan nan
nan nan nan nan nan nan nan nan nan nan nan nan nan nan nan nan nan nan nan nan nan nan nan nan nan nan nan
nan nan nan nan nan nan nan nan nan nan nan nan nan nan nan nan nan nan nan nan nan nan nan nan nan nan nan
2.6 2.6 nan nan 3.3 nan nan nan nan nan nan nan nan nan nan nan nan nan nan nan nan nan nan nan nan nan nan
3.0 2.9 3.1 nan nan nan nan nan nan nan nan nan nan nan nan nan nan nan nan nan nan nan nan nan nan nan nan
3.2 3.3 nan nan nan nan 3.5 3.7 4.4 nan nan nan nan nan nan nan nan nan nan nan nan nan nan nan nan nan nan
nan nan nan nan 3.5 3.8 3.8 3.9 4.1 nan nan 4.0 nan nan nan nan nan nan nan nan nan nan nan nan nan nan nan
nan nan nan 0.0 3.4 3.7 3.9 3.9 nan nan nan 4.4 nan nan nan nan nan nan nan nan nan nan nan nan nan nan nan
nan nan nan nan nan 3.3 3.5 4.1 3.9 2.5 2.4 3.4 2.7 3.0 2.8 2.7 nan nan nan nan nan nan nan nan nan nan nan
nan nan nan nan nan nan 3.9 4.7 4.4 4.7 2.9 5.4 4.2 4.3 5.3 2.8 2.5 2.6 nan nan nan nan nan nan nan nan nan
5.0 nan nan 2.5 2.5 3.1 3.7 4.8 5.3 5.2 3.1 4.5 5.3 4.6 4.4 4.5 3.2 2.7 2.6 2.9 5.0 nan nan nan nan nan 2.5
2.8 2.6 2.8 3.0 2.7 2.8 3.1 3.6 3.9 5.6 4.2 4.3 5.7 5.5 5.8 6.2 5.4 3.6 3.5 3.2 3.4 3.5 3.4 nan nan nan nan
3.4 3.0 3.1 3.1 3.9 4.3 4.1 4.0 4.3 3.9 4.2 4.4 5.7 5.8 6.0 6.4 6.8 5.7 5.2 3.5 3.3 3.8 3.6 3.5 3.2 3.1 3.3
4.9 3.9 3.8 4.7 5.0 4.6 5.7 5.3 5.9 5.4 4.0 4.3 5.3 6.2 6.6 6.0 6.4 6.4 4.7 6.3 3.6 3.2 3.1 3.0 2.8 2.8 3.1
5.0 4.9 4.6 4.9 5.8 5.4 5.7 5.7 6.6 6.5 6.5 4.6 4.4 4.6 5.1 6.3 7.2 5.2 5.0 4.8 3.2 3.4 3.7 3.6 2.9 2.6 2.7
4.4 4.6 5.3 5.6 5.9 5.9 5.9 6.6 7.0 6.7 6.9 6.1 6.1 7.0 4.9 4.3 5.3 5.8 4.8 4.7 3.4 3.2 3.1 5.4 3.8 2.8 2.4
4.8 5.0 5.4 5.7 5.9 6.4 6.7 6.8 7.1 6.8 6.9 6.7 7.1 7.8 8.6 9.0 4.3 nan 5.9 4.6 3.7 3.9 3.2 3.6 4.1 2.8 2.5